Weather in Topchikha

Russia / Altai Krai     52°49′14″N   83°07′16″E
temp.,
°C
wind,
m/s
gust,
m/s
humid.,
%
clouds,
%
prec.,
mm/h
press.,
hPa
HPBL,
m
17 june, thu
thu1701:00+17ssw1168100 0.0 101211
04:00+16wsw347328 0.0 101244
07:00+17ssw2375100 0.0 101281
10:00+21sw3463100 0.0 1012345
13:00+26sw4648100 0.0 10101265
16:00+27w464248 0.0 10092370
19:00+26wnw25526 0.0 10091518
22:00+20n116811 0.0 100911
18 june, fri
fri1801:00+18sw117534 0.0 100911
04:00+17w11785 0.0 100811
07:00+19ssw227627 0.0 100879
10:00+24ssw22595 0.0 1007481
13:00+28sw34475 0.0 10061773
16:00+29ssw243985 0.0 10052375
19:00+28s465056 0.0 1004313
22:00+20ssw227097 0.0 100317
19 june, sat
sat1901:00+18s22721 0.0 100218
04:00+17sse22785 0.0 100019
07:00+19se36806 0.0 1000137
10:00+25s585177 0.0 999636
13:00+28sw7114268 0.0 9981552
16:00+29w55442 0.0 9971685
19:00+24wnw786318 0.2 998640
22:00+17sw1191100 4.5 100025
20 june, sun
sun2001:00+14wnw588689 4.6 1002361
04:00+12w4883100 0.0 1004583
07:00+10sw61093100 1.3 1007670
10:00+11sw9126524 0.4 10091279
13:00+15sw91354100 0.4 10102096
16:00+15ssw81256100 0.0 10101985
19:00+16ssw712555 0.1 10101712
22:00+12s513645 0.1 1010341
21 june, mon
mon2101:00+9se4107711 0.1 1010178
04:00+8s396998 0.0 1009166
07:00+11s4116999 0.0 1008527
10:00+15ssw71258100 0.0 10071547
13:00+13ssw81474100 0.3 10071439
16:00+12ssw41283100 0.6 1007748
19:00+14e3484100 1.0 1004218
22:00+13s61388100 1.1 1003705